Voltar ao catálogo

COSMOS 1823 DEB

AtivoLEO
NORAD 39815·DEBRIS·🇷🇺 Russia

Lançado Feb 20, 1987 de Plesetsk Cosmodrome

Loading…

Próximas Passagens (próximas 24 horas)

TLE

EnvelhecendoSource: Space-Track

Época: Sep 12, 2026, 10:05 UTC

1 39815U 87020EP  26255.42044530  .00000020  00000-0  27043-3 0  9996
2 39815  73.5996 277.7380 0025176 112.0239 248.3484 12.42115193715881

Acompanhe COSMOS 1823 DEB em tempo real com AllMySat

Download on the App Store